Skip Page Navigation
NASA JPL Caltech
NASA Logo - Jet Propulsion Laboratory + View the NASA Portal
+ Center for Near-Earth Object Studies
JPL Home Earth Solar System Stars & Galaxies Technology
JPL Solar System Dynamics
BODIES ORBITS EPHEMERIDES TOOLS PHYSICAL DATA DISCOVERY FAQ SITE MAP
JPL Small-Body Database Browser
Search: [ help ]  
382937 (2004 TK175)
Classification: Main-belt Asteroid          SPK-ID: 2382937
Ephemeris | Orbit Diagram | Orbital Elements | Mission Design | Physical Parameters | Discovery Circumstances ]

[ show orbit diagram ]
Orbital Elements at Epoch 2459000.5 (2020-May-31.0) TDB
Reference: JPL 13 (heliocentric ecliptic J2000)
 Element Value Uncertainty (1-sigma)   Units 
e .2191218492167152 1.7476e-07  
a 2.631455985160907 3.1435e-08 au
q 2.054846483560056 4.4767e-07 au
i 14.30650353877786 1.2265e-05 deg
node 30.67692955102446 3.3402e-05 deg
peri 352.2094928829842 3.8713e-05 deg
M 240.7887053904957 3.314e-05 deg
tp 2459516.806384904472
(2021-Oct-29.30638490)
0.00015145 TDB
period 1559.16684886661
4.27
2.7939e-05
7.649e-08
d
yr
n .2308925438362747 4.1374e-09 deg/d
Q 3.208065486761759 3.8324e-08 au
  Orbit Determination Parameters
   # obs. used (total)      127  
   data-arc span      5254 days (14.38 yr)  
   first obs. used      2004-09-17  
   last obs. used      2019-02-05  
   planetary ephem.      DE431  
   SB-pert. ephem.      SB431-N16  
   condition code      0  
   norm. resid. RMS      .62747  
   source      ORB  
   producer      Otto Matic  
   solution date      2019-Jul-13 19:11:27  

Additional Information
 Earth MOID = 1.05971 au 
 Jupiter MOID = 2.24841 au 
 T_jup = 3.322 
[ hide covariance matrix ]
Orbital Elements at Epoch 2456714.5 (2014-Feb-26.0) TDB
Reference: JPL 13 (heliocentric ecliptic J2000)
 Element Value Uncertainty (1-sigma)   Units 
e .2184915253094425 1.7447e-07  
q 2.057871143096048 4.4609e-07 au
tp 2456401.061786246454
(2013-Apr-18.56178625)
0.00010604 TDB
node 30.74577635342623 3.3409e-05 deg
peri 352.6668117171166 3.8719e-05 deg
i 14.30150277788436 1.2259e-05 deg
  Orbit Determination Parameters
   # obs. used (total)      127  
   data-arc span      5254 days (14.38 yr)  
   first obs. used      2004-09-17  
   last obs. used      2019-02-05  
   planetary ephem.      DE431  
   SB-pert. ephem.      SB431-N16  
   condition code      0  
   norm. resid. RMS      .62747  
   source      ORB  
   producer      Otto Matic  
   solution date      2019-Jul-13 19:11:27  

Additional Information
 Jupiter MOID = 2.24841 au 
 T_jup = 3.322 
Orbit Covariance (6×6)
  e q tp node peri i
e 3.043964823629506E-14 -7.774131981602921E-14 8.668593367873552E-12 2.470361757470453E-13 2.407697633923554E-13 -5.872069003094988E-14
q -7.774131981602921E-14 1.989919881080594E-13 -2.102376299981436E-11 -6.25082178015435E-13 -3.934994233023923E-13 1.43333916715852E-13
tp 8.668593367873552E-12 -2.102376299981436E-11 1.124396692391086E-8 1.157327078807098E-10 1.962976595058571E-9 -5.998693171642906E-11
node 2.470361757470453E-13 -6.25082178015435E-13 1.157327078807098E-10 1.116171503480212E-9 -1.066548898002949E-9 -1.160513913039848E-10
peri 2.407697633923554E-13 -3.934994233023923E-13 1.962976595058571E-9 -1.066548898002949E-9 1.499155766455732E-9 1.018261732480678E-10
i -5.872069003094988E-14 1.43333916715852E-13 -5.998693171642906E-11 -1.160513913039848E-10 1.018261732480678E-10 1.502808274225231E-10

Ephemeris | Orbit Diagram | Orbital Elements | Mission Design | Physical Parameters | Discovery Circumstances ]

Physical Parameter Table
Parameter Symbol Value Units Sigma Reference Notes
absolute magnitude H 16.6   n/a MPO434374  

382937 (2004 TK175)          Discovered 2004-Oct-09 by LINEAR at Socorro
Reference: Last Updated: 2014-01-21
Ephemeris | Orbit Diagram | Orbital Elements | Mission Design | Physical Parameters | Discovery Circumstances ]
ABOUT SSD CREDITS/AWARDS PRIVACY/COPYRIGHT GLOSSARY LINKS
FirstGov 2020-Oct-28 09:47 UT
(server date/time)  
NASA Home Page
Site Manager:   Ryan S. Park
Webmaster  Alan B. Chamberlin